Weather History for Monroe, NC

Change the Weather History Date:

Thursday, February 7, 2013

  Actual Average (KCLT) Record (KCLT)
Temperature  
Mean Temperature 42 °F 42 °F  
Max Temperature 46 °F 53 °F 74 °F (1999)
Min Temperature 39 °F 31 °F 10 °F (1895)
Degree Days  
Heating Degree Days 22 23  
Month to date heating degree days 162  
Since 1 July heating degree days 2269  
Cooling Degree Days 0 0  
Month to date cooling degree days 0  
Year to date cooling degree days 0  
Moisture  
Dew Point 35 °F    
Average Humidity 77    
Maximum Humidity 97    
Minimum Humidity 42    
Precipitation  
Precipitation 0.11 in 0.11 in 1.65 in (1971)
Month to date precipitation 0.77  
Year to date precipitation 4.18  
Snow  
Snow 0.00 in 0.00 in 1.50 in (1895)
Month to date snowfall 0.3  
Since 1 July snowfall 2.8  
Snow Depth -    
Sea Level Pressure  
Sea Level Pressure 30.19 in    
Wind  
Wind Speed 10 mph (NE)    
Max Wind Speed 20 mph    
Max Gust Speed 24 mph    
Visibility 8 miles    
Events Rain    
T = Trace of Precipitation, MM = Missing Value Source: NWS Daily Summary

Daily Weather History Graph

Daily Weather History Graph

Search for Another Location

Airport:

Trip Planner

Search our weather history database for the weather conditions in past years. The results will help you decide how hot, cold, wet, or windy it might be!

Date:

Astronomy

Feb. 07, 2013 Rise Set
Actual Time 7:16 AM EST 5:57 PM EST
Civil Twilight 6:49 AM EST 6:23 PM EST
Nautical Twilight 6:19 AM EST 6:53 PM EST
Astronomical Twilight 5:50 AM EST 7:23 PM EST
Moon 4:50 AM EST (2/7) 3:23 PM EST (2/7)
Length of Visible Light 11h 34m
Length of Day
10h 41m
Waning Crescent, 9% of the Moon is Illuminated
Feb 7
Waning Crescent
Feb 10
New
Feb 17
First Quarter
Feb 25
Full
Mar 4
Last Quarter

Hourly Weather History & Observations

Time (EST) Temp. Windchill Dew Point Humidity Pressure Visibility Wind Dir Wind Speed Gust Speed Precip Events Conditions
12:53 AM 46.9 °F - 25.0 °F 42% 30.23 in 10.0 mi ENE 6.9 mph - N/A   Clear
1:53 AM 43.0 °F 40.3 °F 26.1 °F 51% 30.25 in 10.0 mi ENE 4.6 mph - N/A   Clear
2:53 AM 42.1 °F 37.7 °F 27.0 °F 55% 30.24 in 10.0 mi NE 6.9 mph - N/A   Clear
3:53 AM 41.0 °F 35.8 °F 28.0 °F 60% 30.24 in 10.0 mi NE 8.1 mph - N/A   Clear
4:53 AM 42.1 °F 37.7 °F 28.9 °F 60% 30.26 in 10.0 mi ENE 6.9 mph - N/A   Clear
5:53 AM 42.1 °F 36.6 °F 30.0 °F 62% 30.28 in 10.0 mi NE 9.2 mph - N/A   Clear
6:53 AM 41.0 °F 35.8 °F 32.0 °F 70% 30.29 in 10.0 mi NE 8.1 mph - N/A   Clear
7:53 AM 41.0 °F 34.3 °F 33.1 °F 73% 30.29 in 10.0 mi NNE 11.5 mph - N/A   Clear
8:53 AM 42.1 °F 35.7 °F 35.1 °F 76% 30.30 in 10.0 mi NE 11.5 mph - N/A   Scattered Clouds
9:53 AM 43.0 °F 36.8 °F 37.0 °F 80% 30.28 in 10.0 mi NE 11.5 mph 18.4 mph N/A   Partly Cloudy
10:53 AM 45.0 °F 38.9 °F 37.9 °F 76% 30.27 in 8.0 mi NE 12.7 mph - N/A   Partly Cloudy
11:53 AM 45.0 °F 39.7 °F 37.9 °F 76% 30.27 in 9.0 mi NE 10.4 mph - N/A   Mostly Cloudy
12:53 PM 46.0 °F 40.2 °F 37.9 °F 73% 30.22 in 8.0 mi NNE 12.7 mph - N/A   Mostly Cloudy
1:53 PM 46.0 °F 40.6 °F 37.9 °F 73% 30.20 in 8.0 mi NNE 11.5 mph - N/A   Overcast
2:53 PM 45.0 °F 39.3 °F 37.9 °F 76% 30.19 in 7.0 mi NNE 11.5 mph - 0.00 in Rain Light Rain
3:53 PM 45.0 °F 39.3 °F 39.0 °F 80% 30.18 in 6.0 mi NNE 11.5 mph - 0.00 in Rain Light Rain
4:53 PM 43.0 °F 36.0 °F 39.9 °F 89% 30.14 in 5.0 mi NNE 13.8 mph - 0.00 in Rain Light Rain
5:53 PM 42.1 °F 34.2 °F 39.0 °F 89% 30.12 in 5.0 mi NNE 16.1 mph - 0.00 in Rain Light Rain
6:53 PM 41.0 °F 33.9 °F 39.0 °F 93% 30.11 in 5.0 mi NNE 12.7 mph - 0.00 in Rain Light Rain
7:21 PM 41.0 °F 34.3 °F 39.2 °F 93% 30.06 in 5.0 mi NNE 11.5 mph - 0.00 in Rain Light Rain
7:53 PM 41.0 °F 33.5 °F 39.0 °F 93% 30.09 in 4.0 mi NNE 13.8 mph - 0.00 in Rain Light Rain
8:53 PM 39.9 °F 33.4 °F 39.0 °F 97% 30.07 in 4.0 mi NNE 10.4 mph - 0.00 in Rain Light Rain
9:53 PM 41.0 °F 34.7 °F 39.9 °F 96% 30.06 in 4.0 mi NNE 10.4 mph 19.6 mph 0.02 in Rain Rain
10:53 PM 42.1 °F 33.9 °F 39.9 °F 92% 30.02 in 4.0 mi NNE 17.3 mph - 0.09 in Rain Rain
11:53 PM 42.1 °F 33.3 °F 39.9 °F 92% 29.99 in 7.0 mi NNE 19.6 mph 24.2 mph N/A Rain Light Rain